Weather History for KHEQ - January, 2014

Change the Weather History Date:

Saturday, January 4, 2014

  Actual Average Record
Temperature  
Mean Temperature 25 °F -  
Max Temperature 35 °F 35 °F 35 °F (2014)
Min Temperature 15 °F 10 °F -5 °F (2015)
Degree Days  
Heating Degree Days 40    
Moisture  
Dew Point 14 °F    
Average Humidity 60    
Maximum Humidity 75    
Minimum Humidity 37    
Precipitation  
Precipitation 0.00 in - - ()
Sea Level Pressure  
Sea Level Pressure 29.96 in    
Wind  
Wind Speed 16 mph (North)    
Max Wind Speed 30 mph    
Max Gust Speed 37 mph    
Visibility 10 miles    
Events Snow    
Averages and records for this station are not official NWS values.
T = Trace of Precipitation, MM = Missing Value Source: NWS Daily Summary

Daily Weather History Graph

Daily Weather History Graph

Search for Another Location

Airport or City:

Trip Planner

Search our weather history database for the weather conditions in past years. The results will help you decide how hot, cold, wet, or windy it might be!

Date:

Astronomy

Jan. 04, 2014 Rise Set
Actual Time 7:12 AM MST 4:35 PM MST
Civil Twilight 6:42 AM MST 5:06 PM MST
Nautical Twilight 6:08 AM MST 5:40 PM MST
Astronomical Twilight 5:35 AM MST 6:13 PM MST
Moon 9:18 AM MST (1/4) 8:59 PM MST (1/4)
Length of Visible Light 10h 23m
Length of Day
9h 22m
Waxing Crescent, 16% of the Moon is Illuminated
Jan 4
Waxing Crescent
Jan 7
First Quarter
Jan 15
Full
Jan 23
Last Quarter
Jan 30
New

Hourly Weather History & Observations

Time (MST) Temp. Windchill Dew Point Humidity Pressure Visibility Wind Dir Wind Speed Gust Speed Precip Events Conditions
12:15 AM 35.6 °F 25.5 °F 26.6 °F 70% 29.70 in 10.0 mi NNW 17.3 mph 28.8 mph N/A   Clear
12:35 AM 33.8 °F 23.5 °F 26.6 °F 75% 29.72 in 10.0 mi NNW 16.1 mph - N/A   Clear
12:55 AM 33.8 °F 23.2 °F 26.6 °F 75% 29.72 in 10.0 mi North 17.3 mph 24.2 mph N/A   Clear
1:15 AM 33.8 °F 22.5 °F 26.6 °F 75% 29.72 in 10.0 mi NNW 19.6 mph 25.3 mph N/A   Clear
1:35 AM 33.8 °F 21.9 °F 26.6 °F 75% 29.73 in 10.0 mi NNW 21.9 mph 28.8 mph N/A   Clear
1:55 AM 33.8 °F 21.0 °F 26.6 °F 75% 29.74 in 10.0 mi NNW 25.3 mph 34.5 mph N/A   Scattered Clouds
2:15 AM 33.8 °F 20.5 °F 26.6 °F 75% 29.74 in 10.0 mi NNW 27.6 mph 33.4 mph N/A   Scattered Clouds
2:35 AM 33.8 °F 20.1 °F 26.6 °F 75% 29.74 in 10.0 mi NNW 29.9 mph 34.5 mph N/A   Scattered Clouds
2:55 AM 33.8 °F 20.5 °F 23.0 °F 65% 29.77 in 10.0 mi North 27.6 mph 34.5 mph N/A   Mostly Cloudy
3:15 AM 33.8 °F 20.3 °F 23.0 °F 65% 29.76 in 10.0 mi North 28.8 mph 36.8 mph N/A   Mostly Cloudy
3:35 AM 33.8 °F 20.3 °F 24.8 °F 70% 29.77 in 10.0 mi North 28.8 mph 36.8 mph N/A   Overcast
3:55 AM 32.0 °F 19.8 °F 23.0 °F 69% 29.80 in 10.0 mi North 20.7 mph 31.1 mph N/A   Overcast
4:15 AM 32.0 °F 20.5 °F 23.0 °F 69% 29.81 in 10.0 mi North 18.4 mph 26.5 mph N/A   Overcast
4:35 AM 30.2 °F 17.1 °F 21.2 °F 69% 29.81 in 10.0 mi North 21.9 mph 32.2 mph N/A   Overcast
4:55 AM 30.2 °F 17.8 °F 21.2 °F 69% 29.83 in 10.0 mi North 19.6 mph 27.6 mph N/A   Overcast
5:15 AM 30.2 °F 16.8 °F 21.2 °F 69% 29.84 in 10.0 mi North 23.0 mph 26.5 mph N/A   Overcast
5:35 AM 30.2 °F 16.8 °F 21.2 °F 69% 29.86 in 10.0 mi North 23.0 mph 28.8 mph N/A   Overcast
5:55 AM 28.4 °F 15.8 °F 21.2 °F 74% 29.86 in 10.0 mi North 18.4 mph 27.6 mph N/A   Overcast
6:15 AM 28.4 °F 17.0 °F 21.2 °F 74% 29.88 in 10.0 mi North 15.0 mph 24.2 mph N/A   Overcast
6:35 AM 28.4 °F 17.0 °F 19.4 °F 69% 29.90 in 10.0 mi North 15.0 mph 24.2 mph N/A   Overcast
6:55 AM 28.4 °F 18.0 °F 19.4 °F 69% 29.92 in 10.0 mi North 12.7 mph - N/A   Overcast
7:15 AM 28.4 °F 17.5 °F 19.4 °F 69% 29.93 in 10.0 mi North 13.8 mph - N/A   Overcast
7:35 AM 28.4 °F 17.0 °F 19.4 °F 69% 29.94 in 10.0 mi North 15.0 mph - N/A   Overcast
7:55 AM 28.4 °F 18.0 °F 21.2 °F 74% 29.94 in 10.0 mi North 12.7 mph - N/A Snow Light Snow
8:15 AM 28.4 °F 17.5 °F 21.2 °F 74% 29.94 in 10.0 mi North 13.8 mph 23.0 mph N/A   Overcast
8:35 AM 28.4 °F 15.8 °F 19.4 °F 69% 29.93 in 10.0 mi North 18.4 mph 24.2 mph N/A   Overcast
8:55 AM 26.6 °F 13.4 °F 17.6 °F 69% 29.95 in 10.0 mi North 18.4 mph 24.2 mph N/A   Overcast
9:15 AM 26.6 °F 15.2 °F 17.6 °F 69% 29.97 in 10.0 mi North 13.8 mph 20.7 mph N/A   Overcast
9:35 AM 26.6 °F 14.3 °F 17.6 °F 69% 29.98 in 10.0 mi North 16.1 mph - N/A   Overcast
9:55 AM 28.4 °F 18.0 °F 17.6 °F 64% 29.99 in 10.0 mi North 12.7 mph 17.3 mph N/A   Overcast
10:15 AM 28.4 °F 17.5 °F 17.6 °F 64% 30.00 in 10.0 mi North 13.8 mph - N/A   Overcast
10:35 AM 28.4 °F 18.0 °F 17.6 °F 64% 30.00 in 10.0 mi North 12.7 mph - N/A   Overcast
10:55 AM 28.4 °F 17.0 °F 17.6 °F 64% 30.00 in 10.0 mi North 15.0 mph 18.4 mph N/A   Overcast
11:15 AM 28.4 °F 16.2 °F 15.8 °F 59% 29.98 in 10.0 mi North 17.3 mph 20.7 mph N/A   Overcast
11:35 AM 28.4 °F 15.1 °F 8.6 °F 43% 29.97 in 10.0 mi North 20.7 mph 26.5 mph N/A   Overcast
11:55 AM 28.4 °F 15.8 °F 5.0 °F 37% 29.97 in 10.0 mi North 18.4 mph 24.2 mph N/A   Overcast
12:15 PM 28.4 °F 17.5 °F 10.4 °F 47% 29.96 in 10.0 mi NNE 13.8 mph - N/A   Overcast
12:35 PM 28.4 °F 16.2 °F 10.4 °F 47% 29.96 in 10.0 mi North 17.3 mph 20.7 mph N/A   Overcast
12:55 PM 28.4 °F 17.0 °F 10.4 °F 47% 29.96 in 10.0 mi North 15.0 mph 23.0 mph N/A   Overcast
1:15 PM 28.4 °F 17.5 °F 8.6 °F 43% 29.97 in 10.0 mi North 13.8 mph - N/A   Overcast
1:35 PM 28.4 °F 16.6 °F 8.6 °F 43% 29.96 in 10.0 mi North 16.1 mph - N/A   Overcast
1:55 PM 28.4 °F 18.5 °F 6.8 °F 40% 29.98 in 10.0 mi North 11.5 mph 20.7 mph N/A   Overcast
2:15 PM 26.6 °F 15.2 °F 5.0 °F 40% 29.99 in 10.0 mi North 13.8 mph - N/A   Overcast
2:35 PM 28.4 °F 17.5 °F 6.8 °F 40% 29.99 in 10.0 mi North 13.8 mph 18.4 mph N/A   Overcast
2:55 PM 26.6 °F 13.8 °F 5.0 °F 40% 30.00 in 10.0 mi North 17.3 mph - N/A   Overcast
3:15 PM 26.6 °F 15.2 °F 5.0 °F 40% 30.01 in 10.0 mi North 13.8 mph - N/A   Overcast
3:35 PM 26.6 °F 15.7 °F 6.8 °F 43% 30.01 in 10.0 mi North 12.7 mph - N/A   Overcast
3:55 PM 26.6 °F 14.7 °F 8.6 °F 47% 30.01 in 10.0 mi North 15.0 mph 18.4 mph N/A   Overcast
4:15 PM 26.6 °F 15.2 °F 8.6 °F 47% 30.03 in 10.0 mi North 13.8 mph 17.3 mph N/A   Mostly Cloudy
4:35 PM 26.6 °F 17.5 °F 6.8 °F 43% 30.04 in 10.0 mi North 9.2 mph - N/A   Scattered Clouds
4:55 PM 24.8 °F 15.3 °F 6.8 °F 46% 30.04 in 10.0 mi North 9.2 mph - N/A   Clear
5:15 PM 24.8 °F 14.6 °F 5.0 °F 43% 30.04 in 10.0 mi North 10.4 mph - N/A   Clear
5:35 PM 23.0 °F 13.1 °F 5.0 °F 46% 30.05 in 10.0 mi North 9.2 mph - N/A   Clear
5:55 PM 21.2 °F 10.9 °F 5.0 °F 50% 30.05 in 10.0 mi North 9.2 mph - N/A   Clear
6:15 PM 21.2 °F 11.7 °F 6.8 °F 54% 30.05 in 10.0 mi North 8.1 mph - N/A   Clear
6:35 PM 19.4 °F 8.6 °F 6.8 °F 58% 30.06 in 10.0 mi North 9.2 mph - N/A   Clear
6:55 PM 19.4 °F 8.6 °F 5.0 °F 54% 30.06 in 10.0 mi North 9.2 mph - N/A   Clear
7:15 PM 19.4 °F 8.6 °F 5.0 °F 54% 30.08 in 10.0 mi North 9.2 mph - N/A   Clear
7:35 PM 17.6 °F 10.7 °F 5.0 °F 58% 30.08 in 10.0 mi North 4.6 mph - N/A   Clear
7:55 PM 19.4 °F - 5.0 °F 54% 30.10 in 10.0 mi Calm Calm - N/A   Mostly Cloudy
8:15 PM 15.8 °F - 6.8 °F 68% 30.10 in 10.0 mi Calm Calm - N/A   Overcast
8:35 PM 19.4 °F - 8.6 °F 63% 30.11 in 10.0 mi Calm Calm - N/A   Overcast
8:55 PM 19.4 °F - 8.6 °F 63% 30.11 in 10.0 mi Calm Calm - N/A   Overcast
9:15 PM 19.4 °F - 8.6 °F 63% 30.11 in 10.0 mi Calm Calm - N/A   Overcast
9:35 PM 19.4 °F - 10.4 °F 68% 30.11 in 10.0 mi Calm Calm - N/A   Overcast
9:55 PM 19.4 °F 14.3 °F 8.6 °F 63% 30.11 in 10.0 mi North 3.5 mph - N/A   Overcast
10:15 PM 19.4 °F 12.8 °F 10.4 °F 68% 30.11 in 10.0 mi North 4.6 mph - N/A   Overcast
10:35 PM 19.4 °F 14.3 °F 8.6 °F 63% 30.11 in 10.0 mi NE 3.5 mph - N/A   Overcast
10:55 PM 19.4 °F 14.3 °F 8.6 °F 63% 30.10 in 10.0 mi NE 3.5 mph - N/A   Overcast
11:15 PM 19.4 °F - 8.6 °F 63% 30.11 in 10.0 mi Calm Calm - N/A   Overcast
11:35 PM 19.4 °F 12.8 °F 8.6 °F 63% 30.11 in 10.0 mi NE 4.6 mph - N/A   Overcast
11:55 PM 19.4 °F 11.5 °F 8.6 °F 63% 30.12 in 10.0 mi NNE 5.8 mph - N/A   Overcast